Weather History for EGLF - April, 2013

Change the Weather History Date:

Sunday, April 21, 2013

  Actual Average (EGLL) Record (EGLL)
Temperature  
Mean Temperature 42 °F -  
Max Temperature 57 °F 58 °F 77 °F (2011)
Min Temperature 27 °F 42 °F 30 °F (1997)
Degree Days  
Heating Degree Days 23    
Moisture  
Dew Point 34 °F    
Average Humidity 55    
Maximum Humidity 91    
Minimum Humidity 28    
Precipitation  
Precipitation 0.00 in - - ()
Sea Level Pressure  
Sea Level Pressure 30.14 in    
Wind  
Wind Speed 6 mph ()    
Max Wind Speed 15 mph    
Max Gust Speed -    
Visibility 9.1 miles    
Events      
Averages and records for this station are not official NWS values.
T = Trace of Precipitation, MM = Missing Value Source: Averaged Metar Reports

Daily Weather History Graph

Daily Weather History Graph

Search for Another Location

Airport or City:

Trip Planner

Search our weather history database for the weather conditions in past years. The results will help you decide how hot, cold, wet, or windy it might be!

Date:

Astronomy

Apr. 21, 2013 Rise Set
Actual Time 5:55 AM BST 8:09 PM BST
Civil Twilight 5:19 AM BST 8:45 PM BST
Nautical Twilight 4:33 AM BST 9:31 PM BST
Astronomical Twilight 3:41 AM BST 10:24 PM BST
Moon 3:10 PM BST (4/21) 3:41 AM BST (4/21)
Length of Visible Light 15h 26m
Length of Day
14h 14m
Waxing Gibbous, 78% of the Moon is Illuminated
Apr 21
Waxing Gibbous
Apr 25
Full
May 2
Last Quarter
May 10
New
May 18
First Quarter

Hourly Weather History & Observations

Time (BST) Temp. Windchill Dew Point Humidity Pressure Visibility Wind Dir Wind Speed Gust Speed Precip Events Conditions
12:50 AM 34 °F - 28 °F 71% 30.37 in 37 mi SSW 2.3 mph - -  
3:50 AM 30 °F - 28 °F 88% 30.30 in 19 mi WSW 1.2 mph - -  
6:50 AM 31 °F - 29 °F 91% 30.27 in 15 mi Calm Calm - -  
7:50 AM 39.2 °F - 35.6 °F 87% 30.24 in - Calm Calm - N/A   Clear
8:20 AM 44.6 °F 41.4 °F 35.6 °F 71% 30.24 in - Variable 5.8 mph - N/A   Clear
8:50 AM 44.6 °F 40.7 °F 37.4 °F 76% 30.21 in - SW 6.9 mph - N/A   Clear
9:20 AM 46.4 °F - 35.6 °F 66% 30.21 in - North - - N/A   Clear
9:50 AM 48 °F - 34 °F 47% 30.22 in 17 mi West 6.9 mph - -  
9:50 AM 48.2 °F - 35.6 °F 62% 30.21 in - WSW 8.1 mph - N/A   Clear
10:20 AM 48.2 °F - 35.6 °F 62% 30.18 in - West 5.8 mph - N/A   Clear
10:50 AM 50.0 °F - 35.6 °F 58% 30.18 in - WSW 5.8 mph - N/A   Clear
11:20 AM 51.8 °F - 35.6 °F 54% 30.18 in 6.2 mi Variable 8.1 mph - N/A   Partly Cloudy
11:50 AM 53.6 °F - 33.8 °F 47% 30.15 in 6.2 mi West 8.1 mph - N/A   Partly Cloudy
12:20 PM 53.6 °F - 32.0 °F 44% 30.15 in 6.2 mi Variable 4.6 mph - N/A   Partly Cloudy
12:50 PM 54 °F - 31 °F 28% 30.14 in 17 mi WSW 6.9 mph - -  
12:50 PM 53.6 °F - 30.2 °F 41% 30.12 in 6.2 mi WSW 9.2 mph - N/A   Partly Cloudy
1:20 PM 55.4 °F - 32.0 °F 41% 30.12 in 6.2 mi Variable 8.1 mph - N/A   Partly Cloudy
1:50 PM 55.4 °F - 32.0 °F 41% 30.09 in 6.2 mi WSW 11.5 mph - N/A   Partly Cloudy
2:20 PM 55.4 °F - 32.0 °F 41% 30.09 in 6.2 mi West 9.2 mph - N/A   Partly Cloudy
2:50 PM 55.4 °F - 32.0 °F 41% 30.06 in 6.2 mi SSW 12.7 mph - N/A   Partly Cloudy
3:20 PM 53.6 °F - 32.0 °F 44% 30.06 in 6.2 mi WSW 12.7 mph - N/A   Partly Cloudy
3:50 PM 54 °F - 36 °F 38% 30.07 in 17 mi WSW 12.7 mph - -   Scattered Clouds
3:50 PM 53.6 °F - 37.4 °F 54% 30.06 in 6.2 mi WSW 15.0 mph - N/A   Partly Cloudy
4:20 PM 53.6 °F - 33.8 °F 47% 30.06 in 6.2 mi SW 12.7 mph - N/A   Partly Cloudy
4:50 PM 53.6 °F - 30.2 °F 41% 30.06 in 6.2 mi WSW 13.8 mph - N/A   Partly Cloudy
5:20 PM 53.6 °F - 32.0 °F 44% 30.06 in 6.2 mi West 11.5 mph - N/A   Partly Cloudy
5:50 PM 51.8 °F - 32.0 °F 47% 30.06 in 6.2 mi WSW 15.0 mph - N/A   Partly Cloudy
6:20 PM 51.8 °F - 32.0 °F 47% 30.06 in 6.2 mi WSW 15.0 mph - N/A   Partly Cloudy
6:50 PM 51 °F - 34 °F 41% 30.06 in 16 mi WSW 11.5 mph - -   Mostly Cloudy
6:50 PM 51.8 °F - 33.8 °F 50% 30.04 in - WSW 12.7 mph - N/A   Clear
7:20 PM 50.0 °F - 35.6 °F 58% 30.04 in 6.2 mi WSW 10.4 mph - N/A   Partly Cloudy
7:50 PM 50.0 °F - 37.4 °F 62% 30.06 in 6.2 mi WSW 9.2 mph - N/A   Partly Cloudy
9:50 PM 45 °F - 41 °F 80% 30.08 in 11 mi SW 10.4 mph - -   Scattered Clouds